Location: Drouwen
(52.9559°N, 6.7974°E)
Time: 14:53:07
(UTC+00:00)

Meteor 1-27 Rocket - Pass Details

Date: 15 May 2026
Orbit: 830 x 907 km, 81.3° (Epoch: 10 June)

Event Time Altitude Azimuth Distance (km) Brightness Sun altitude
Exits shadow 23:25:46 31° 179° (S) 1,519 4.4 -18.0°
Maximum altitude 23:28:42 75° 100° (E) 914 3.8 -18.0°
Drops below altitude 10° 23:34:25 10° 16° (NNE) 2,521 7.3 -18.0°
Sets 23:36:50 0° 15° (NNE) 3,450 8.4 -18.0°
